Date String (YYYY-MM-DD hh:mm:ss) UTC,Instrument flags,absolute air pressure of the measurement (hPa),sample flow rate (lpm),inlet stack bypass flow (lpm),air temperature of the measurement (°C),ambient temperature measured by the external sensor (°C),aerosol sample conditioner tube jacket temperature (°C),OPC LED temperature (°C),internal box temperature (°C),relative humidity of the measurement (%),span deviation,mass concentration of particles derived from Lorenz-Mie calculation of OPC scattering (μg/m³),mass concentration of particles derived from Lorenz-Mie calculation of OPC scattering (μg/m³),mass concentration of particles derived from Lorenz-Mie calculation of OPC scattering (μg/m³)
DateTimeUTC,F1_M11,P_M11,Q1_M11,Q2_M11,T1_M11,T2_M11,T3_M11,T4_M11,T5_M11,U1_M11,ZSPAN_M11,X0_M11,X2_M11,X1_M11
2023-06-02 00:00:00,SystemResetWarning,0824.9,5.00,000.00,029.3,027.7,000.0,037.7,031.0,22.6,0000.0,0005.48,0002.38,0001.47
2023-06-02 00:01:00,SystemResetWarning,0824.9,5.00,000.00,029.3,027.8,000.0,037.7,030.9,22.6,0000.0,0006.26,0002.41,0001.47
2023-06-02 00:02:00,SystemResetWarning,0824.9,5.01,000.00,029.3,027.8,000.0,037.7,031.0,22.8,0000.0,0006.57,0002.36,0001.45
2023-06-02 00:03:00,SystemResetWarning,0824.9,5.00,000.00,029.3,027.8,000.0,037.7,031.0,22.9,0000.0,0006.01,0002.34,0001.42
2023-06-02 00:04:00,SystemResetWarning,0824.9,5.00,000.00,029.3,027.9,000.0,037.7,031.0,23.1,0000.0,0006.00,0002.33,0001.39
2023-06-02 00:05:00,SystemResetWarning,0824.9,5.00,000.00,029.3,027.9,000.0,037.7,031.0,23.3,0000.0,0005.90,0002.28,0001.37
2023-06-02 00:06:00,SystemResetWarning,0824.9,4.99,000.00,029.3,027.9,000.0,037.7,030.9,23.6,0000.0,0005.85,0002.26,0001.36
2023-06-02 00:07:00,SystemResetWarning,0824.9,5.00,000.00,029.3,027.9,000.0,037.7,030.9,23.2,0000.0,0005.72,0002.21,0001.36
2023-06-02 00:08:00,SystemResetWarning,0824.8,5.01,000.00,029.3,027.9,000.0,037.7,030.9,23.5,0000.0,0005.67,0002.20,0001.35
2023-06-02 00:09:00,SystemResetWarning,0824.8,5.01,000.00,029.3,027.9,000.0,037.7,030.9,23.5,0000.0,0006.55,0002.14,0001.33
2023-06-02 00:10:00,SystemResetWarning,0824.8,5.00,000.00,029.3,027.9,000.0,037.7,030.9,23.5,0000.0,0006.02,0002.03,0001.30
2023-06-02 00:11:00,SystemResetWarning,0824.8,5.00,000.00,029.3,027.9,000.0,037.7,030.9,23.4,0000.0,0005.93,0002.00,0001.29
2023-06-02 00:12:00,SystemResetWarning,0824.8,4.99,000.00,029.3,027.9,000.0,037.7,030.9,23.5,0000.0,0005.84,0002.00,0001.28
2023-06-02 00:13:00,SystemResetWarning,0824.8,4.99,000.00,029.3,027.9,000.0,037.7,031.0,23.6,0000.0,0006.35,0002.04,0001.29
2023-06-02 00:14:00,SystemResetWarning,0824.8,5.00,000.00,029.3,027.9,000.0,037.7,031.0,23.3,0000.0,0006.58,0002.11,0001.29
2023-06-02 00:15:00,SystemResetWarning,0824.8,5.01,000.00,029.3,027.9,000.0,037.7,031.0,23.2,0000.0,0006.66,0002.13,0001.32
2023-06-02 00:16:00,SystemResetWarning,0824.8,5.00,000.00,029.3,027.9,000.0,037.7,031.0,23.0,0000.0,0007.54,0002.16,0001.33
2023-06-02 00:17:00,SystemResetWarning,0824.8,5.01,000.00,029.3,028.0,000.0,037.8,031.0,22.9,0000.0,0007.62,0002.18,0001.33
2023-06-02 00:18:00,SystemResetWarning,0824.8,4.99,000.00,029.4,028.1,000.0,037.8,031.1,23.0,0000.0,0007.60,0002.17,0001.32
2023-06-02 00:19:00,SystemResetWarning,0824.8,5.00,000.00,029.4,028.1,000.0,037.8,031.1,23.2,0000.0,0007.58,0002.15,0001.30
2023-06-02 00:20:00,SystemResetWarning,0824.8,4.99,000.00,029.4,028.2,000.0,037.8,031.1,23.5,0000.0,0006.87,0002.12,0001.28
2023-06-02 00:21:00,SystemResetWarning,0824.8,5.01,000.00,029.5,028.2,000.0,037.8,031.2,23.6,0000.0,0007.06,0002.12,0001.27
2023-06-02 00:22:00,SystemResetWarning,0824.7,5.00,000.00,029.5,027.9,000.0,037.8,031.1,22.5,0000.0,0007.73,0002.13,0001.27
2023-06-02 00:23:00,SystemResetWarning,0824.7,4.99,000.00,029.5,026.3,000.0,037.7,030.9,22.6,0000.0,0007.30,0002.08,0001.25
2023-06-02 00:24:00,SystemResetWarning,0824.7,5.00,000.00,029.4,025.4,000.0,037.7,030.8,22.9,0000.0,0006.32,0001.99,0001.24
2023-06-02 00:25:00,SystemResetWarning,0824.7,5.01,000.00,029.3,025.5,000.0,037.6,030.7,22.6,0000.0,0005.97,0001.88,0001.22
2023-06-02 00:26:00,SystemResetWarning,0824.7,5.01,000.00,029.3,025.8,000.0,037.6,030.7,22.2,0000.0,0005.96,0001.82,0001.17
2023-06-02 00:27:00,SystemResetWarning,0824.7,4.99,000.00,029.2,026.1,000.0,037.6,030.7,22.5,0000.0,0005.06,0001.78,0001.15
2023-06-02 00:28:00,SystemResetWarning,0824.7,5.00,000.00,029.2,026.5,000.0,037.6,030.8,22.5,0000.0,0004.53,0001.68,0001.11
2023-06-02 00:29:00,SystemResetWarning,0824.7,5.00,000.00,029.2,026.8,000.0,037.6,030.8,22.3,0000.0,0004.40,0001.61,0001.08
2023-06-02 00:30:00,SystemResetWarning,0824.7,5.01,000.00,029.2,027.0,000.0,037.6,030.9,21.8,0000.0,0004.34,0001.57,0001.06
2023-06-02 00:31:00,SystemResetWarning,0824.7,4.99,000.00,029.3,027.2,000.0,037.6,030.9,21.9,0000.0,0004.34,0001.54,0001.04
2023-06-02 00:32:00,SystemResetWarning,0824.7,4.99,000.00,029.3,027.4,000.0,037.6,030.9,21.9,0000.0,0003.46,0001.51,0001.00
2023-06-02 00:33:00,SystemResetWarning,0824.7,5.00,000.00,029.3,027.6,000.0,037.6,031.0,21.6,0000.0,0002.59,0001.46,0000.97
2023-06-02 00:34:00,SystemResetWarning,0824.7,5.01,000.00,029.3,027.7,000.0,037.7,031.0,20.8,0000.0,0002.51,0001.41,0000.92
2023-06-02 00:35:00,SystemResetWarning,0824.7,5.00,000.00,029.4,027.8,000.0,037.7,031.0,18.9,0000.0,0002.56,0001.43,0000.93
2023-06-02 00:36:00,SystemResetWarning,0824.7,5.01,000.00,029.4,027.9,000.0,037.7,031.1,18.9,0000.0,0002.79,0001.53,0000.97
2023-06-02 00:37:00,SystemResetWarning,0824.6,4.99,000.00,029.4,028.0,000.0,037.7,031.1,20.5,0000.0,0002.68,0001.50,0000.98
2023-06-02 00:38:00,SystemResetWarning,0824.6,4.99,000.00,029.4,028.1,000.0,037.7,031.1,20.6,0000.0,0003.09,0001.45,0000.96
2023-06-02 00:39:00,SystemResetWarning,0824.5,5.01,000.00,029.5,028.1,000.0,037.7,031.2,20.2,0000.0,0003.03,0001.44,0000.97
2023-06-02 00:40:00,SystemResetWarning,0824.5,5.00,000.00,029.5,028.2,000.0,037.8,031.2,20.2,0000.0,0003.14,0001.51,0001.01
2023-06-02 00:41:00,SystemResetWarning,0824.5,5.00,000.00,029.5,028.2,000.0,037.8,031.2,21.1,0000.0,0003.28,0001.58,0001.04
2023-06-02 00:42:00,SystemResetWarning,0824.5,5.00,000.00,029.6,028.3,000.0,037.8,031.3,22.1,0000.0,0003.20,0001.58,0001.06
2023-06-02 00:43:00,SystemResetWarning,0824.6,5.00,000.00,029.6,028.3,000.0,037.8,031.3,22.4,0000.0,0003.24,0001.61,0001.08
2023-06-02 00:44:00,SystemResetWarning,0824.6,5.00,000.00,029.6,028.4,000.0,037.8,031.3,21.2,0000.0,0003.30,0001.66,0001.12
2023-06-02 00:45:00,SystemResetWarning,0824.7,5.00,000.00,029.6,028.4,000.0,037.9,031.4,20.9,0000.0,0003.37,0001.72,0001.17
2023-06-02 00:46:00,SystemResetWarning,0824.7,5.00,000.00,029.7,028.4,000.0,037.9,031.4,20.7,0000.0,0003.50,0001.78,0001.22
2023-06-02 00:47:00,SystemResetWarning,0824.7,5.00,000.00,029.7,028.5,000.0,037.9,031.4,21.0,0000.0,0003.35,0001.73,0001.20
2023-06-02 00:48:00,SystemResetWarning,0824.7,5.00,000.00,029.7,028.3,000.0,037.9,031.4,21.4,0000.0,0003.35,0001.73,0001.20
2023-06-02 00:49:00,SystemResetWarning,0824.7,4.99,000.00,029.7,026.7,000.0,037.9,031.2,21.4,0000.0,0003.30,0001.82,0001.25
2023-06-02 00:50:00,SystemResetWarning,0824.7,5.02,000.00,029.6,025.7,000.0,037.8,031.0,21.4,0000.0,0003.10,0001.89,0001.29
2023-06-02 00:51:00,SystemResetWarning,0824.7,5.00,000.00,029.5,025.7,000.0,037.8,030.9,21.4,0000.0,0003.34,0001.95,0001.32
2023-06-02 00:52:00,SystemResetWarning,0824.8,5.00,000.00,029.5,025.9,000.0,037.8,030.9,21.4,0000.0,0003.29,0001.92,0001.33
2023-06-02 00:53:00,SystemResetWarning,0824.9,5.00,000.00,029.4,026.2,000.0,037.8,030.9,21.8,0000.0,0003.55,0002.03,0001.37
2023-06-02 00:54:00,SystemResetWarning,0824.9,5.00,000.00,029.4,026.5,000.0,037.8,030.9,24.0,0000.0,0003.66,0002.05,0001.37
2023-06-02 00:55:00,SystemResetWarning,0824.9,5.00,000.00,029.4,026.8,000.0,037.8,031.0,24.2,0000.0,0003.58,0002.00,0001.37
2023-06-02 00:56:00,SystemResetWarning,0824.9,5.00,000.00,029.4,027.1,000.0,037.8,031.0,23.0,0000.0,0003.64,0001.99,0001.36
2023-06-02 00:57:00,SystemResetWarning,0824.9,5.00,000.00,029.4,027.3,000.0,037.7,031.0,22.7,0000.0,0003.96,0002.02,0001.33
2023-06-02 00:58:00,SystemResetWarning,0824.9,5.00,000.00,029.4,027.4,000.0,037.7,031.0,23.0,0000.0,0004.22,0002.07,0001.33
2023-06-02 00:59:00,SystemResetWarning,0824.9,5.00,000.00,029.3,027.6,000.0,037.7,031.0,23.2,0000.0,0004.16,0002.07,0001.33
